Weather History for Haines, AK

Change the Weather History Date:

Monday, January 13, 2014

  Actual Average Record
Temperature  
Mean Temperature 28 °F -  
Max Temperature 37 °F 26 °F 43 °F (1981)
Min Temperature 19 °F 19 °F -8 °F (1980)
Degree Days  
Heating Degree Days 37    
Moisture  
Dew Point 24 °F    
Average Humidity 88    
Maximum Humidity 92    
Minimum Humidity 84    
Precipitation  
Precipitation 0.71 in - - ()
Sea Level Pressure  
Sea Level Pressure 29.71 in    
Wind  
Wind Speed 11 mph (NW)    
Max Wind Speed 23 mph    
Max Gust Speed 39 mph    
Visibility 6 miles    
Events Rain , Snow    
Averages and records for this station are not official NWS values.
T = Trace of Precipitation, MM = Missing Value Source: NWS Daily Summary

Daily Weather History Graph

Daily Weather History Graph

Search for Another Location

Airport:

Trip Planner

Search our weather history database for the weather conditions in past years. The results will help you decide how hot, cold, wet, or windy it might be!

Date:

Astronomy

Jan. 13, 2014 Rise Set
Actual Time 8:46 AM AKST 3:35 PM AKST
Civil Twilight 7:54 AM AKST 4:27 PM AKST
Nautical Twilight 7:02 AM AKST 5:20 PM AKST
Astronomical Twilight 6:13 AM AKST 6:09 PM AKST
Moon 2:02 PM AKST (1/13) 6:36 AM AKST (1/13)
Length of Visible Light 8h 32m
Length of Day
6h 49m
Waxing Gibbous, 95% of the Moon is Illuminated
Jan 13
Waxing Gibbous
Jan 15
Full
Jan 23
Last Quarter
Jan 30
New
Feb 6
First Quarter

Hourly Weather History & Observations

Time (AKST) Temp. Windchill Dew Point Humidity Pressure Visibility Wind Dir Wind Speed Gust Speed Precip Events Conditions
12:33 AM 19.0 °F 13.9 °F 16.0 °F 88% 29.43 in 2.0 mi WNW 3.5 mph - 0.00 in Snow Light Snow
12:54 AM 19.0 °F 8.2 °F 16.0 °F 88% 29.46 in 2.0 mi WNW 9.2 mph - 0.00 in Snow Light Snow
1:35 AM 19.0 °F 6.8 °F 16.0 °F 88% 29.47 in 1.8 mi WNW 11.5 mph - 0.00 in Snow Light Snow
1:54 AM 19.0 °F 9.0 °F 16.0 °F 88% 29.49 in 2.0 mi WNW 8.1 mph - 0.01 in Snow Light Snow
2:23 AM 21.0 °F 8.6 °F 17.1 °F 85% 29.50 in 3.0 mi West 12.7 mph - 0.00 in Snow Light Snow
2:54 AM 19.0 °F 6.1 °F 16.0 °F 88% 29.52 in 3.0 mi WNW 12.7 mph - 0.00 in Snow Light Snow
3:03 AM 19.0 °F 6.1 °F 16.0 °F 88% 29.52 in 2.5 mi WNW 12.7 mph - 0.00 in Snow Light Snow
3:16 AM 19.0 °F 6.8 °F 16.0 °F 88% 29.53 in 4.0 mi NW 11.5 mph - 0.00 in Snow Light Snow
3:54 AM 19.9 °F 6.7 °F 17.1 °F 89% 29.57 in 6.0 mi WNW 13.8 mph - 0.00 in Snow Light Snow
4:50 AM 19.4 °F 5.5 °F 15.8 °F 86% 29.60 in 2.0 mi WNW 15.0 mph - 0.00 in Snow Light Snow
4:54 AM 19.9 °F 5.7 °F 16.0 °F 85% 29.62 in 2.0 mi WNW 16.1 mph - 0.00 in Snow Light Snow
5:10 AM 19.9 °F 6.2 °F 17.1 °F 89% 29.61 in 1.5 mi WNW 15.0 mph - 0.00 in Snow Light Snow
5:40 AM 21.9 °F 8.2 °F 19.0 °F 89% 29.63 in 2.5 mi WNW 16.1 mph - 0.00 in Snow Light Snow
5:54 AM 23.0 °F 9.2 °F 19.9 °F 88% 29.64 in 2.0 mi WNW 17.3 mph - 0.00 in Snow Light Snow
6:15 AM 24.1 °F 10.6 °F 19.9 °F 84% 29.66 in 3.0 mi WNW 17.3 mph - 0.00 in Snow Light Snow
6:54 AM 21.0 °F 6.6 °F 18.0 °F 88% 29.70 in 6.0 mi WNW 17.3 mph - 0.00 in Snow Light Snow
7:54 AM 19.9 °F 5.7 °F 17.1 °F 89% 29.76 in 9.0 mi West 16.1 mph - 0.00 in Snow Light Snow
8:54 AM 21.0 °F 6.6 °F 18.0 °F 88% 29.81 in 10.0 mi WNW 17.3 mph - 0.00 in   Overcast
9:17 AM 23.0 °F 12.4 °F 19.9 °F 88% 29.82 in 10.0 mi WNW 10.4 mph - 0.00 in   Overcast
9:39 AM 24.1 °F 13.7 °F 21.0 °F 88% 29.84 in 2.5 mi West 10.4 mph - 0.00 in   Overcast
9:47 AM 24.1 °F 15.2 °F 21.0 °F 88% 29.84 in 10.0 mi WNW 8.1 mph - 0.00 in   Overcast
9:54 AM 24.1 °F 12.5 °F 21.0 °F 88% 29.85 in 10.0 mi NW 12.7 mph 18.4 mph 0.00 in   Overcast
10:06 AM 24.1 °F 13.1 °F 19.9 °F 84% 29.86 in 9.0 mi WNW 11.5 mph - N/A   Overcast
10:54 AM 23.0 °F 11.1 °F 19.9 °F 88% 29.90 in 10.0 mi WNW 12.7 mph - N/A   Overcast
11:50 AM 24.8 °F 14.0 °F 21.2 °F 86% 29.91 in 10.0 mi WNW 11.5 mph - N/A   Overcast
11:54 AM 25.0 °F 15.5 °F 21.9 °F 88% 29.91 in 10.0 mi WNW 9.2 mph - N/A   Overcast
12:12 PM 26.1 °F - 21.9 °F 84% 29.91 in 10.0 mi Calm Calm - N/A   Overcast
12:54 PM 26.1 °F - 24.1 °F 92% 29.92 in 10.0 mi Calm Calm - 0.00 in   Overcast
1:54 PM 34.0 °F 31.0 °F 30.9 °F 89% 29.94 in 8.0 mi Variable 3.5 mph - 0.00 in Snow Light Snow
2:54 PM 36.0 °F 29.6 °F 33.1 °F 89% 29.94 in 10.0 mi East 8.1 mph 20.7 mph 0.00 in   Overcast
3:54 PM 37.0 °F 29.3 °F 33.1 °F 86% 29.92 in 10.0 mi ESE 11.5 mph 23.0 mph 0.01 in   Overcast
4:54 PM 37.0 °F 29.3 °F 34.0 °F 89% 29.88 in 10.0 mi East 11.5 mph 20.7 mph N/A   Overcast
5:54 PM 37.0 °F 27.7 °F 33.1 °F 86% 29.85 in 10.0 mi ENE 16.1 mph 34.5 mph 0.00 in   Overcast
6:25 PM 36.0 °F 28.0 °F 33.1 °F 89% 29.82 in 10.0 mi East 11.5 mph 20.7 mph 0.00 in Rain Light Rain
6:54 PM 36.0 °F 28.0 °F 33.1 °F 89% 29.81 in 10.0 mi East 11.5 mph 20.7 mph 0.00 in Rain Light Rain
7:54 PM 34.0 °F 25.0 °F 32.0 °F 92% 29.76 in 2.5 mi ENE 12.7 mph 20.7 mph 0.07 in Snow Light Snow
8:27 PM 34.0 °F 24.6 °F 32.0 °F 92% 29.70 in 1.5 mi East 13.8 mph 32.2 mph 0.07 in Snow Light Snow
8:54 PM 34.0 °F 23.4 °F 32.0 °F 92% 29.70 in 1.2 mi East 17.3 mph 28.8 mph 0.15 in Snow Light Snow
9:48 PM 35.6 °F 24.5 °F 32.0 °F 87% 29.64 in 2.0 mi ENE 20.7 mph 33.4 mph 0.18 in Snow Light Snow
9:54 PM 35.1 °F 24.5 °F 32.0 °F 89% 29.64 in 2.0 mi East 18.4 mph 32.2 mph 0.19 in Snow Light Snow
10:19 PM 34.0 °F 23.4 °F 32.0 °F 92% 29.61 in 1.8 mi ENE 17.3 mph 29.9 mph 0.06 in Snow Light Snow
10:54 PM 34.0 °F 22.4 °F 32.0 °F 92% 29.60 in 1.8 mi East 20.7 mph 32.2 mph 0.14 in Snow Light Snow
11:28 PM 34.0 °F 21.8 °F 32.0 °F 92% 29.56 in 2.0 mi East 23.0 mph 39.1 mph 0.08 in Snow Light Snow
11:54 PM 34.0 °F 22.1 °F 32.0 °F 92% 29.57 in 2.5 mi East 21.9 mph 32.2 mph 0.14 in Snow Light Snow